Theta_e
298 299 299 300 299 298 299 300 300 300 301 302 302 303 303 303 302 303 305 304 304 305 305 306 306 308 308 309 311 310 314 312 312 314 316 316 315 319 324 325 327 328 330 332 333 333 328 326 326 329 335 339 335 333
298 298 299 299 299 299 299 299 300 300 301 302 302 302 303 303 303 302 305 305 306 305 306 305 305 305 306 306 307 309 311 314 314 316 313 315 316 315 320 326 323 327 330 330 330 331 333 332 335 338 336 335 331 333
296 298 298 298 298 298 298 298 299 300 301 302 302 302 302 302 302 303 304 305 307 307 308 309 309 308 307 306 307 310 311 310 311 313 315 316 318 313 318 320 321 323 323 325 327 329 329 329 330 333 331 332 332 332
295 297 297 298 298 298 298 298 299 301 302 302 302 303 303 302 301 302 304 306 305 307 308 309 307 308 309 308 308 306 309 309 311 310 313 315 317 314 313 315 316 316 320 325 326 327 329 328 329 329 330 330 332 330
296 297 297 297 297 298 298 298 299 300 302 302 302 303 303 302 301 302 304 306 306 307 308 308 307 308 308 307 307 308 310 310 310 310 312 314 311 314 315 313 313 314 317 321 326 322 323 330 329 328 331 330 332 331
295 295 295 296 297 298 298 299 300 301 302 302 302 302 302 302 301 304 308 306 305 304 307 309 308 309 308 308 308 309 310 310 309 309 309 309 311 315 315 314 313 312 314 313 316 318 319 321 328 329 331 331 332 331
294 294 294 295 296 298 299 300 301 302 302 302 302 302 301 301 303 305 307 304 302 304 307 309 310 309 308 309 309 309 310 309 310 310 309 309 309 310 313 314 312 312 313 314 314 313 319 323 326 326 328 330 328 330
292 292 293 294 295 298 299 300 301 302 302 302 302 301 301 301 302 305 307 305 304 305 308 310 310 309 309 310 311 311 310 309 309 310 311 309 309 309 312 311 310 310 310 312 314 314 315 319 322 324 326 327 329 330
292 292 292 293 296 298 299 300 301 302 304 303 304 303 305 305 307 307 304 303 305 306 308 309 310 313 309 309 309 311 310 310 309 310 309 310 310 312 309 309 310 310 311 311 313 314 314 315 320 320 322 326 325 327
292 292 292 293 296 299 299 300 301 302 305 305 307 309 309 308 305 305 307 309 307 307 306 308 309 313 310 309 309 312 312 310 311 310 309 310 312 311 310 309 310 310 310 312 314 316 315 317 319 319 318 319 323 323
291 292 292 293 297 299 299 301 302 303 306 306 308 308 306 307 308 309 310 310 310 310 309 310 312 313 310 311 309 309 311 312 313 312 312 311 311 312 313 311 310 310 312 312 314 315 316 317 318 318 318 317 317 320
291 292 292 293 298 300 299 301 302 304 306 304 303 305 308 311 310 309 310 309 310 311 310 313 312 311 312 306 307 307 310 311 312 313 315 315 316 316 316 316 312 312 312 312 312 314 315 316 316 317 318 318 318 318
291 292 292 296 300 300 299 301 302 303 305 308 308 310 309 309 311 311 310 311 314 311 311 312 313 311 311 307 304 307 309 312 307 313 313 313 309 312 314 317 315 312 312 313 312 312 314 315 315 316 317 318 319 322
291 292 293 301 301 298 299 302 302 306 308 310 309 312 311 311 312 312 313 312 311 311 312 312 312 313 312 309 309 310 311 308 314 316 314 310 305 307 309 314 315 317 317 317 314 314 313 314 314 316 316 317 319 322
291 292 299 300 297 297 299 304 305 308 309 309 309 311 312 311 311 309 309 310 310 313 311 313 312 312 313 311 310 311 311 313 312 311 308 303 301 303 306 307 307 307 311 315 317 318 318 316 316 319 318 318 319 320
292 294 302 297 295 297 301 306 310 308 308 308 308 311 310 310 310 308 308 308 310 310 310 311 311 310 311 311 312 310 310 309 308 304 303 308 304 305 305 304 306 307 308 311 313 314 317 320 321 322 320 321 320 323
292 298 296 294 295 298 305 307 308 308 307 308 309 308 309 309 309 309 308 308 309 309 311 310 310 311 310 311 312 306 309 305 304 309 311 311 311 310 309 310 309 308 308 310 311 312 317 320 322 323 326 326 326 328
295 295 292 296 299 302 308 308 308 308 307 308 308 308 308 309 308 308 308 308 309 309 310 312 310 310 312 312 312 310 307 309 310 310 311 311 312 311 311 311 310 310 309 310 311 312 312 315 320 323 322 322 323 324
293 292 293 298 301 301 310 308 308 309 308 308 308 307 308 308 308 308 309 308 308 309 309 310 310 311 312 312 310 310 313 312 312 312 312 312 313 312 311 309 310 311 311 311 312 312 312 313 315 316 317 319 321 321
293 292 299 302 301 307 308 308 308 309 308 308 307 307 308 308 307 308 308 308 308 308 309 310 310 311 310 311 309 309 311 312 310 311 314 313 312 311 311 312 312 311 311 311 312 312 312 313 313 313 313 314 315 316
294 301 301 301 306 308 308 307 307 307 308 307 307 307 307 307 307 307 308 309 308 307 309 308 309 310 309 311 310 310 311 311 311 309 309 309 310 311 311 311 311 311 312 312 312 312 312 313 312 313 314 313 313 314
297 299 300 302 306 306 307 306 307 306 306 307 307 307 308 309 309 307 306 307 309 308 308 308 307 308 310 310 310 310 309 309 309 309 308 308 308 309 310 310 311 311 311 312 311 311 311 310 312 312 312 313 313 313
299 301 302 306 305 306 305 305 307 307 307 306 307 307 307 307 307 307 306 307 308 307 307 307 306 308 309 308 309 308 308 309 309 309 310 309 308 307 307 307 308 309 310 311 310 310 311 310 311 312 312 313 313 313
299 301 304 305 306 305 305 306 307 307 307 307 307 306 306 306 306 306 306 306 307 307 306 306 306 306 308 308 309 307 308 308 308 307 308 308 310 309 307 306 307 308 308 308 309 309 310 311 311 311 311 312 312 312
300 301 303 304 306 306 305 305 306 306 304 304 304 305 306 305 306 306 306 305 307 307 306 305 305 306 307 308 308 307 308 306 308 309 307 307 307 308 308 307 307 307 307 307 307 308 309 310 311 311 311 310 311 311
301 303 305 305 305 305 306 304 303 304 304 304 304 304 305 305 304 304 304 305 306 305 305 305 305 305 305 306 306 307 306 306 306 308 307 306 306 307 307 307 307 307 306 307 307 307 307 308 308 309 309 309 310 311
301 302 304 303 305 305 305 305 304 304 303 303 303 304 303 303 303 303 305 305 304 303 302 302 303 304 304 304 304 304 304 304 306 306 306 305 305 306 306 306 306 305 305 305 306 307 307 307 307 307 307 307 308 309
299 300 301 303 303 306 306 306 304 303 303 303 303 303 303 303 303 302 304 304 303 301 300 300 300 300 301 303 303 303 303 303 304 305 305 306 305 304 305 305 304 304 304 302 304 306 307 307 307 307 307 307 306 306
299 301 299 299 301 304 305 305 304 303 302 302 305 303 303 302 302 302 301 301 300 300 300 300 300 300 300 302 303 303 302 302 303 304 306 305 302 300 302 302 302 303 303 303 302 303 304 304 304 305 304 306 306 303
299 299 301 302 303 304 304 303 303 303 302 302 302 302 302 302 301 300 300 300 300 300 300 299 299 299 299 300 303 303 301 301 300 300 301 302 300 300 299 299 300 300 300 301 301 302 301 303 302 302 301 300 300 299
299 300 300 303 302 302 302 302 302 301 301 301 301 301 301 301 300 300 300 300 300 300 300 299 298 299 302 302 302 302 301 299 299 298 296 297 298 298 297 297 298 298 299 299 299 299 300 300 299 299 299 298 297 296
300 300 301 301 304 303 302 301 302 301 301 301 302 301 301 301 300 301 300 300 300 300 298 298 300 300 300 300 299 299 297 297 295 292 290 292 294 294 294 296 296 297 298 298 298 298 298 298 298 296 295 294 294 293
301 299 300 300 303 301 301 301 302 301 302 304 301 300 300 300 300 301 299 299 299 299 299 299 298 297 297 297 296 295 294 291 289 287 286 287 288 290 293 293 294 296 296 296 296 295 295 294 293 292 291 290 290 289
Wind_Speed
31 30 28 27 26 27 27 28 30 31 29 28 25 22 18 13 10 4 12 11 6 3 15 19 13 9 10 6 3 9 8 7 6 7 6 5 5 7 8 15 10 15 15 12 15 15 13 14 18 22 7 5 6 15
31 29 29 28 27 27 29 29 30 31 29 26 23 20 15 13 12 13 9 16 9 4 11 30 25 19 16 16 3 4 6 8 5 5 3 3 6 1 10 5 13 7 5 10 9 11 5 10 8 8 10 8 9 16
30 30 30 30 30 29 30 31 29 29 29 27 24 22 16 14 13 12 17 16 11 4 12 5 8 18 15 18 14 4 2 5 5 4 5 2 4 3 2 4 10 8 11 6 10 13 14 12 10 8 12 10 11 10
31 31 32 33 32 31 31 31 29 31 31 26 24 23 19 16 16 15 15 15 11 4 5 7 6 2 16 15 19 22 9 7 6 7 3 3 2 9 6 9 10 10 11 13 13 14 9 8 10 10 13 8 11 10
31 33 34 34 34 33 32 31 29 35 31 27 23 23 20 17 15 15 17 12 6 5 4 10 20 7 5 7 9 11 7 7 8 8 5 7 6 2 5 4 9 8 3 4 4 17 11 12 9 24 12 7 1 14
33 35 36 35 35 34 32 29 33 37 31 27 25 23 20 14 11 11 2 2 6 8 4 5 7 6 15 11 9 10 6 7 8 8 8 1 7 2 2 8 7 8 16 10 14 15 17 24 10 11 28 9 10 13
35 37 38 37 37 35 31 33 37 38 32 30 23 18 11 7 6 5 5 11 15 14 2 4 5 3 12 9 8 8 10 7 7 8 9 10 8 5 6 11 13 10 17 9 11 17 15 24 6 9 22 13 9 10
37 38 39 39 38 34 30 37 40 36 30 20 16 13 7 6 7 7 3 4 8 6 3 3 5 4 5 4 4 6 6 6 6 9 10 9 10 10 11 15 14 15 16 15 13 17 16 22 25 3 15 8 17 13
39 39 40 40 38 31 34 38 41 32 25 15 11 8 3 5 3 3 10 8 5 5 3 3 3 3 4 3 3 3 2 3 4 9 11 8 11 11 14 17 18 15 11 17 13 18 22 21 21 12 13 10 2 3
40 40 41 42 36 26 37 41 41 28 18 15 8 5 1 3 12 7 4 3 4 3 4 5 0 4 4 1 3 3 3 3 3 7 8 11 12 18 21 19 17 15 15 14 15 13 16 17 19 19 14 12 8 7
41 41 42 43 32 28 39 40 37 26 14 9 5 3 12 11 4 2 3 3 3 3 3 4 6 7 3 3 2 2 3 4 3 3 3 4 11 13 19 21 18 18 17 16 14 14 16 13 16 15 15 12 12 10
41 42 43 42 28 31 41 40 29 17 12 8 9 10 7 4 2 4 5 2 2 5 7 9 12 9 2 3 1 1 2 3 4 8 3 3 8 16 15 19 21 18 20 17 15 15 11 13 16 17 14 11 13 14
41 42 43 36 24 37 43 38 23 17 13 5 3 3 4 3 6 7 7 5 5 8 9 12 11 5 1 2 1 1 2 4 6 3 3 3 10 15 14 16 9 15 20 18 17 15 16 18 16 18 17 15 18 14
40 41 40 20 31 42 40 32 20 15 6 2 4 6 5 3 3 3 7 6 4 6 12 10 5 2 2 0 1 3 1 2 3 4 5 5 12 15 15 13 12 13 15 14 12 17 18 17 17 18 23 22 18 16
39 40 22 24 39 41 38 24 11 7 3 3 3 4 3 4 7 4 6 7 6 7 5 5 1 3 4 4 4 4 6 5 4 4 4 5 12 12 13 13 14 12 11 8 8 9 15 18 17 18 22 26 29 27
38 29 11 35 42 40 34 23 8 6 2 2 2 4 8 8 9 8 9 10 9 9 8 5 5 5 4 4 4 4 8 4 4 3 8 6 2 4 8 11 11 10 10 9 7 10 14 20 20 18 26 29 32 34
31 10 34 39 40 38 20 9 5 2 3 2 3 2 5 8 9 10 9 9 9 7 6 3 5 5 3 5 5 3 4 5 8 9 7 4 3 2 4 5 6 13 15 13 13 13 12 14 13 18 7 10 9 20
19 30 37 32 28 27 11 5 3 3 4 4 3 5 5 5 5 7 7 8 7 9 7 3 1 4 3 5 3 2 3 4 7 9 8 3 1 2 8 8 9 7 10 11 10 11 17 14 10 10 10 18 10 17
34 36 29 23 15 7 4 2 1 3 4 6 6 5 7 5 4 5 7 6 6 8 4 3 4 4 2 3 5 6 4 3 3 4 7 12 8 11 8 6 7 9 9 9 10 10 11 13 13 16 13 14 8 14
34 31 13 11 10 5 4 3 4 4 4 5 8 4 7 5 6 3 4 5 6 5 5 4 3 5 5 3 5 6 7 10 4 4 2 1 4 7 7 7 4 6 7 12 13 16 13 8 12 17 16 16 11 9
24 2 15 13 6 12 4 4 4 3 3 4 7 7 6 4 7 6 4 4 4 1 2 3 5 6 6 1 5 6 7 8 7 8 9 7 8 15 12 15 11 15 7 6 7 7 9 4 11 12 13 13 13 10
12 16 11 6 4 5 5 8 4 5 5 7 8 6 5 4 8 6 4 1 4 2 3 6 6 7 8 12 1 4 9 12 9 9 13 12 9 9 8 12 10 8 6 10 11 8 11 13 16 16 16 14 15 16
10 5 5 6 5 3 6 9 5 8 4 4 4 5 5 4 6 5 1 2 4 1 2 4 8 10 7 13 25 18 13 7 5 7 8 11 15 14 13 15 15 7 8 10 14 19 17 25 25 20 17 16 15 13
9 4 4 4 7 5 5 6 4 3 4 4 4 8 8 7 6 4 8 6 3 3 1 2 6 3 2 3 3 8 13 12 13 16 11 12 7 8 13 14 16 18 17 19 14 14 14 14 16 17 20 20 16 10
4 5 4 6 5 6 5 5 9 6 6 6 9 8 6 6 4 8 11 8 3 6 2 4 6 6 4 4 1 7 16 10 5 6 12 10 8 7 10 10 13 17 18 12 14 16 17 17 16 16 16 16 14 24
6 6 6 6 5 6 6 4 6 10 10 9 4 3 2 4 7 7 8 3 4 2 2 3 2 4 6 6 6 7 9 12 12 6 11 13 11 9 5 6 6 12 15 17 16 17 16 19 17 19 20 21 25 18
6 7 7 7 7 6 4 6 7 4 4 3 4 8 3 4 5 4 5 2 2 1 5 5 3 5 3 6 9 11 10 13 6 6 8 7 7 7 9 9 6 7 11 12 14 15 17 16 14 15 14 14 17 20
7 6 12 9 8 8 13 10 8 6 6 6 6 6 5 6 4 3 3 1 8 4 6 9 11 14 10 3 6 11 13 12 12 8 8 7 6 3 3 5 5 4 6 12 13 12 13 16 18 19 19 20 20 20
7 6 9 12 14 10 12 11 12 8 7 8 8 9 11 9 8 6 7 8 10 12 10 11 10 9 9 10 4 3 9 13 11 8 7 6 6 13 9 6 6 7 8 6 10 11 12 12 13 13 13 12 13 15
10 10 9 14 17 16 11 7 9 10 10 10 10 8 7 7 11 7 10 11 10 10 9 8 10 13 13 11 3 4 6 9 7 8 6 4 4 2 6 8 7 8 7 8 8 7 9 7 10 11 13 14 14 15
5 9 13 12 13 9 10 9 10 10 10 9 8 7 8 9 12 12 12 13 9 9 6 8 8 8 9 8 6 3 3 3 4 5 8 8 10 8 9 9 8 7 6 6 7 8 6 9 9 11 12 13 14 14
9 14 10 13 10 9 9 10 9 11 11 10 11 11 11 9 8 6 9 5 5 8 4 3 8 8 6 4 4 4 3 3 6 6 8 7 6 7 8 8 6 6 4 4 6 6 7 8 8 10 11 13 14 14
9 10 10 8 7 9 7 9 9 11 10 6 9 11 12 11 12 3 4 6 8 10 12 10 8 8 7 5 5 5 7 7 7 9 10 9 8 8 8 7 7 6 6 7 7 8 9 10 11 12 12 12 13 14
Wind_Direction
348 348 349 350 350 350 352 352 352 351 350 351 350 356 358 360 356 308 289 271 244 272 288 278 281 281 281 313 322 318 310 239 237 239 198 189 251 350 304 300 309 227 181 207 212 228 219 230 217 217 157 232 234 194
346 347 348 349 348 346 344 342 342 345 348 348 348 344 350 344 349 339 301 318 287 230 276 288 284 277 244 266 232 277 354 344 15 289 217 298 242 153 340 298 253 293 176 226 227 216 251 246 288 139 148 219 235 191
343 344 343 342 341 341 340 339 340 341 342 342 340 335 328 319 322 323 307 317 311 271 286 279 265 223 219 224 221 299 30 313 320 1 327 311 316 223 210 287 325 279 1 315 338 262 231 245 262 165 171 202 181 176
344 343 342 340 338 338 339 339 338 340 339 337 331 326 323 315 311 313 303 313 311 291 287 310 313 216 216 210 218 217 246 249 264 281 284 290 275 316 286 258 275 306 341 327 311 281 313 234 340 161 176 194 173 172
346 344 342 341 339 337 337 337 336 337 336 333 326 319 316 309 310 307 293 283 273 320 309 304 298 312 309 285 257 258 257 270 283 276 231 267 267 206 246 288 267 276 325 302 339 336 325 283 12 328 209 175 12 174
346 345 344 343 340 338 338 339 338 337 334 332 322 313 309 302 304 316 294 329 331 349 310 312 317 346 354 318 274 266 251 254 279 279 284 316 293 289 307 266 253 271 271 256 284 304 312 310 44 343 296 68 8 342
343 343 342 343 342 338 340 341 339 338 332 330 321 312 311 289 271 272 287 321 322 319 250 284 296 336 341 305 295 286 282 253 242 255 266 277 251 203 257 272 285 306 288 246 266 299 292 301 269 232 297 110 96 337
342 343 342 341 341 339 341 341 341 341 340 338 334 326 303 276 276 278 272 297 302 283 258 280 286 324 358 333 315 339 294 281 260 264 260 258 257 237 236 255 265 261 256 272 287 267 255 281 296 66 273 270 144 249
343 344 343 340 340 339 343 342 343 342 340 340 329 323 282 228 226 336 297 292 226 271 298 252 273 295 322 17 295 267 267 271 272 247 245 255 253 237 239 238 241 256 260 251 242 250 264 239 258 269 268 272 300 337
342 343 344 340 338 339 345 344 343 341 342 345 312 224 258 14 315 306 222 196 208 209 226 265 171 282 288 348 293 286 218 262 262 257 256 241 249 259 259 255 262 267 237 223 247 241 274 271 271 234 262 280 275 292
339 341 344 341 336 338 345 346 343 344 346 341 339 321 329 316 276 247 279 243 210 243 226 306 319 305 169 237 248 314 313 300 266 286 293 234 246 248 240 249 245 247 260 244 234 243 236 247 262 279 254 274 281 268
336 338 341 341 331 337 343 345 342 346 346 321 305 295 283 260 244 293 305 286 282 341 336 336 333 326 103 114 181 251 281 275 264 342 248 255 9 360 346 323 231 237 249 246 228 226 266 265 268 281 287 277 280 271
334 334 339 338 331 336 340 341 338 326 320 268 239 273 357 305 16 347 330 350 333 324 321 328 324 325 89 93 164 234 248 258 329 275 262 68 336 333 339 324 318 227 233 248 244 239 215 241 247 260 277 280 280 285
333 332 338 335 337 337 335 337 336 327 285 306 320 332 5 359 292 309 311 318 279 264 305 316 304 311 281 27 226 289 298 278 283 309 345 329 331 337 327 338 324 338 334 316 264 251 247 239 238 248 234 259 274 278
332 331 342 339 336 332 336 333 322 303 291 308 336 344 356 270 288 351 340 348 343 329 326 335 360 331 21 6 15 329 338 340 352 313 298 300 328 329 353 7 14 8 346 327 341 308 285 250 238 245 234 233 241 242
333 333 331 329 332 331 337 332 290 273 286 283 345 324 335 0 338 4 352 354 348 355 9 29 11 5 14 345 343 14 326 331 299 293 293 308 148 56 55 42 15 358 352 355 2 326 277 254 242 238 225 233 234 238
335 301 319 324 329 326 333 306 294 255 260 289 281 303 284 329 12 338 357 355 346 341 30 38 19 358 346 337 345 1 335 293 298 329 332 316 41 348 262 321 29 26 1 9 351 326 330 268 286 227 124 23 47 84
311 313 324 331 336 333 314 227 282 261 264 266 275 307 333 337 331 343 353 2 348 342 1 56 108 17 17 341 319 300 242 265 318 332 339 232 329 32 42 18 26 29 5 10 325 19 30 22 37 104 92 82 18 81
314 315 318 324 326 308 279 258 249 282 283 321 292 325 314 322 329 306 342 347 1 346 360 18 14 359 359 244 335 348 318 257 291 351 349 344 42 53 94 84 1 24 14 343 5 25 19 356 30 40 61 77 59 46
317 316 319 329 328 274 273 254 183 243 260 285 301 290 292 312 309 331 298 345 3 15 22 12 352 325 352 8 359 344 341 308 346 353 67 314 328 80 62 51 97 93 35 347 31 43 14 20 42 49 48 51 50 35
325 341 323 322 253 222 279 279 265 274 258 255 283 299 309 317 305 308 334 67 347 351 15 309 18 324 352 283 89 316 323 328 353 36 6 12 36 52 16 49 19 40 47 31 39 29 32 26 49 83 76 70 59 64
276 303 309 279 250 250 239 245 243 298 287 263 275 282 289 306 282 281 302 320 172 250 337 331 342 352 7 347 15 252 356 355 8 2 11 39 30 27 48 39 18 49 43 19 12 47 29 12 35 50 60 68 71 57
294 310 250 241 238 259 259 259 248 245 258 284 341 316 280 273 297 303 308 255 226 310 289 350 331 18 9 349 324 355 2 346 350 358 31 11 15 44 39 28 39 34 24 43 37 35 24 18 30 27 37 61 62 64
271 256 248 233 208 238 248 231 220 233 266 259 260 265 281 280 281 282 276 255 279 189 219 345 319 337 14 340 27 343 338 13 357 354 350 46 358 10 48 47 24 21 39 21 27 31 39 48 50 37 35 25 25 60
267 256 227 245 261 228 232 231 223 229 235 243 259 262 273 285 282 284 291 286 123 275 126 58 333 326 335 331 16 188 277 353 43 298 333 20 152 267 58 18 53 31 14 40 26 14 50 45 38 38 47 32 33 43
233 233 213 219 227 211 206 215 210 230 236 234 242 250 262 280 264 263 263 254 147 350 30 59 30 333 323 333 360 322 342 344 1 4 343 350 18 6 1 15 29 36 14 356 14 36 28 66 53 44 34 28 29 44
241 241 227 243 251 230 228 240 239 252 232 236 236 238 251 248 251 263 69 26 29 334 2 356 333 275 286 305 314 319 325 315 342 350 330 352 18 4 15 28 33 15 19 10 2 38 21 28 59 70 52 36 41 43
235 246 230 231 233 249 247 243 234 229 235 226 229 201 200 207 233 294 5 252 243 270 306 310 301 293 286 248 281 313 313 310 308 281 295 337 350 1 21 79 55 42 54 40 28 27 15 27 35 56 61 55 46 41
229 230 232 237 241 233 230 233 231 226 241 246 215 216 245 257 277 292 262 244 259 277 282 276 283 304 291 228 212 276 327 325 337 338 358 43 39 330 342 21 28 30 17 69 55 53 45 46 41 38 41 50 56 55
239 227 240 239 246 228 225 209 237 240 242 247 253 254 249 243 254 281 287 278 270 275 287 295 302 306 303 306 176 99 41 336 6 3 358 19 70 59 7 359 7 16 16 9 359 34 40 45 38 39 46 47 48 47
242 210 222 230 242 229 234 257 266 249 244 253 258 262 256 257 256 256 264 272 282 285 281 291 312 346 20 3 31 97 138 63 43 30 10 342 351 11 3 347 355 6 15 22 24 13 24 52 56 57 60 60 58 59
234 232 224 217 225 238 251 264 268 252 243 235 235 245 257 262 275 333 15 329 282 300 335 314 26 63 76 89 104 111 137 96 56 22 10 0 351 343 335 341 352 1 9 49 61 55 58 66 68 68 63 62 62 62
245 259 244 248 257 251 237 238 247 262 269 274 274 276 278 281 281 90 85 47 48 40 43 60 79 79 78 79 94 98 86 87 65 55 45 40 34 34 32 20 3 27 52 52 70 71 73 79 79 77 74 70 65 61